Starlink 11174

operational
NORAD ID: 60409 Int'l Des: 2024-141 Owner: SPXS Country: US Constellation: starlink
LEOCIRCULAR

About Starlink 11174

Description loading...

Live Position

Loading 3D Globe...

Upcoming Passes

Altitude History

Altitude vs Time

uPlot chart will show altitude changes over time

Two-Line Element Set

1 60409U 24141M 25349.45632124 .00000622 00000-0 99894-5 0 9995
2 60409 53.1579 141.4585 0000954 52.8616 307.2489 15.69709346 78463
Epoch: Dec 15, 2025 • Age: 34 hours

Current Status

Altitude 359.4 km
Velocity 7.70 km/s
Sub-Earth Point 9.58°N, 106.73°E
Launch Date Aug 10, 2024
Age 1.3 years
Type internet

Technical Details

Classification Payload
Mass 960.00 kg
Dry Mass 910.00 kg
Total Mass 960.00 kg
Length 0.30 m
Diameter 4.10 m
Span 29.00 m
Shape Box + pan
Manufacturer SPXS
Bus Type Starlink V2MD
Phase Status In Orbit
Owner/State SPXS/US

Large Constellations

Loading constellations...